LXJ876 SBSG-GLMR

Flight info

Callsign LXJ876
Flight time N/A
Altitude 37000
Route ILMIG DCT PUDON UZ14 BUGAT DCT UDIGA/N0461F390 UL330 ASDOK DCT 00N019W 02N015W DCT TUROT UG433 DEMAR
Aircraft CL60/M-SADE3FGHIJ3J4J7P2RWXY/HB1D1

Departure

Time 2026-05-06 12:48
Airport Rio Grande do Norte/São Gonçalo do Amarante–Governador Aluízio Alves International Airport (SBSG)

Arrival

Time N/A
Airport Spriggs Payne Airport (GLMR)
Time Latitude Longitude Altitude Speed Heading
2026-05-06 11:51 -5.76424 -35.37532 290 ft 0 kts 230°
2026-05-06 12:41 -5.76427 -35.37536 289 ft 0 kts 229°
2026-05-06 12:42 -5.76456 -35.37545 289 ft 8 kts 171°
2026-05-06 12:42 -5.76495 -35.37479 289 ft 16 kts 97°
2026-05-06 12:42 -5.76517 -35.37345 289 ft 18 kts 100°
2026-05-06 12:42 -5.76553 -35.37248 289 ft 14 kts 160°
2026-05-06 12:43 -5.76661 -35.37257 289 ft 16 kts 189°
2026-05-06 12:43 -5.76700 -35.37329 289 ft 13 kts 281°
2026-05-06 12:43 -5.76685 -35.37434 289 ft 16 kts 276°
2026-05-06 12:43 -5.76674 -35.37558 289 ft 18 kts 274°
2026-05-06 12:44 -5.76656 -35.37696 289 ft 21 kts 277°
2026-05-06 12:44 -5.76620 -35.37848 289 ft 23 kts 285°
2026-05-06 12:44 -5.76625 -35.37951 289 ft 13 kts 221°
2026-05-06 12:44 -5.76656 -35.37965 289 ft 0 kts 191°
2026-05-06 12:46 -5.76657 -35.37965 289 ft 1 kts 191°
2026-05-06 12:47 -5.76693 -35.37971 289 ft 9 kts 187°
2026-05-06 12:47 -5.76772 -35.37954 289 ft 13 kts 119°
2026-05-06 12:47 -5.76793 -35.37838 289 ft 28 kts 100°
2026-05-06 12:47 -5.76864 -35.37391 289 ft 105 kts 102°
2026-05-06 12:48 -5.77036 -35.36424 395 ft 168 kts 103°
2026-05-06 12:48 -5.77218 -35.35209 1092 ft 180 kts 101°
2026-05-06 12:48 -5.77356 -35.33995 2235 ft 173 kts 97°
2026-05-06 12:48 -5.77324 -35.32935 3504 ft 155 kts 89°
2026-05-06 12:49 -5.77189 -35.31742 3892 ft 193 kts 85°
2026-05-06 12:49 -5.77002 -35.30294 4419 ft 224 kts 84°
2026-05-06 12:49 -5.76764 -35.28609 4685 ft 269 kts 85°
2026-05-06 12:49 -5.76546 -35.26615 5122 ft 299 kts 85°
2026-05-06 12:50 -5.76336 -35.24554 6128 ft 300 kts 85°
2026-05-06 12:50 -5.76148 -35.22527 6727 ft 284 kts 85°
2026-05-06 12:50 -5.75971 -35.20542 7035 ft 299 kts 85°
2026-05-06 12:50 -5.75799 -35.18501 8413 ft 293 kts 85°
2026-05-06 12:51 -5.75711 -35.16517 9842 ft 284 kts 94°
2026-05-06 12:51 -5.76019 -35.14572 10996 ft 284 kts 100°
2026-05-06 12:51 -5.76319 -35.12645 12036 ft 285 kts 91°
2026-05-06 12:51 -5.76339 -35.10651 12941 ft 292 kts 89°
2026-05-06 12:52 -5.76340 -35.08581 13660 ft 305 kts 89°
2026-05-06 12:52 -5.76343 -35.06356 13685 ft 339 kts 89°
2026-05-06 12:52 -5.76354 -35.03887 14032 ft 360 kts 89°
2026-05-06 12:52 -5.76367 -35.01328 14645 ft 370 kts 90°
2026-05-06 12:53 -5.76383 -34.98747 15363 ft 376 kts 90°
2026-05-06 12:53 -5.76248 -34.96107 16088 ft 381 kts 79°
2026-05-06 12:53 -5.75384 -34.93536 16769 ft 387 kts 64°
2026-05-06 12:53 -5.74155 -34.91106 17409 ft 392 kts 63°
2026-05-06 12:54 -5.72915 -34.88645 18061 ft 396 kts 64°
2026-05-06 12:54 -5.72088 -34.85991 18715 ft 399 kts 82°
2026-05-06 12:54 -5.72033 -34.83201 19276 ft 405 kts 90°
2026-05-06 12:54 -5.72119 -34.80323 19799 ft 410 kts 90°
2026-05-06 12:55 -5.72196 -34.77502 20314 ft 414 kts 90°
2026-05-06 12:55 -5.72277 -34.74545 20838 ft 419 kts 90°
2026-05-06 12:55 -5.72286 -34.71616 21355 ft 420 kts 83°
2026-05-06 12:55 -5.71579 -34.68800 21829 ft 420 kts 67°
2026-05-06 12:56 -5.70509 -34.66042 22287 ft 424 kts 66°
2026-05-06 12:56 -5.69441 -34.63261 22774 ft 427 kts 66°
2026-05-06 12:56 -5.68369 -34.60442 23212 ft 432 kts 67°
2026-05-06 12:56 -5.67304 -34.57633 23630 ft 436 kts 67°
2026-05-06 12:57 -5.66219 -34.54772 24039 ft 441 kts 68°
2026-05-06 12:57 -5.65111 -34.51853 24442 ft 445 kts 68°
2026-05-06 12:57 -5.64013 -34.48959 24824 ft 449 kts 68°
2026-05-06 12:57 -5.62885 -34.45989 25202 ft 453 kts 68°
2026-05-06 12:58 -5.61754 -34.43012 25560 ft 457 kts 68°
2026-05-06 12:58 -5.60622 -34.40034 25907 ft 461 kts 68°
2026-05-06 12:58 -5.59480 -34.37028 26244 ft 464 kts 68°
2026-05-06 12:58 -5.58320 -34.33975 26582 ft 468 kts 68°
2026-05-06 12:59 -5.57161 -34.30927 26921 ft 471 kts 68°
2026-05-06 12:59 -5.55972 -34.27801 27240 ft 474 kts 68°
2026-05-06 12:59 -5.54800 -34.24720 27537 ft 477 kts 68°
2026-05-06 12:59 -5.53609 -34.21590 27821 ft 481 kts 68°
2026-05-06 13:00 -5.52419 -34.18463 28133 ft 483 kts 68°
2026-05-06 13:00 -5.51206 -34.15274 28520 ft 483 kts 68°
2026-05-06 13:00 -5.50008 -34.12127 28963 ft 483 kts 68°
2026-05-06 13:00 -5.48805 -34.08968 29431 ft 481 kts 68°
2026-05-06 13:01 -5.47665 -34.05973 29893 ft 480 kts 67°
2026-05-06 13:01 -5.46456 -34.02800 30351 ft 479 kts 67°
2026-05-06 13:01 -5.45273 -33.99694 30785 ft 478 kts 67°
2026-05-06 13:01 -5.44089 -33.96585 31216 ft 477 kts 67°
2026-05-06 13:02 -5.42901 -33.93467 31609 ft 476 kts 67°
2026-05-06 13:02 -5.41719 -33.90368 31978 ft 476 kts 67°
2026-05-06 13:02 -5.40546 -33.87292 32363 ft 475 kts 67°
2026-05-06 13:02 -5.39355 -33.84168 32771 ft 474 kts 66°
2026-05-06 13:03 -5.38194 -33.81122 33201 ft 473 kts 66°
2026-05-06 13:03 -5.37018 -33.78041 33599 ft 472 kts 66°
2026-05-06 13:03 -5.35850 -33.74980 34001 ft 470 kts 66°
2026-05-06 13:03 -5.34671 -33.71888 34407 ft 469 kts 66°
2026-05-06 13:04 -5.33518 -33.68868 34758 ft 469 kts 67°
2026-05-06 13:04 -5.32351 -33.65813 35102 ft 468 kts 66°
2026-05-06 13:04 -5.31187 -33.62764 35451 ft 467 kts 67°
2026-05-06 13:04 -5.30026 -33.59723 35756 ft 467 kts 67°
2026-05-06 13:05 -5.28867 -33.56690 36042 ft 466 kts 66°
2026-05-06 13:05 -5.27710 -33.53659 36320 ft 466 kts 66°
2026-05-06 13:05 -5.26549 -33.50623 36571 ft 466 kts 66°
2026-05-06 13:05 -5.25382 -33.47570 36819 ft 466 kts 66°
2026-05-06 13:06 -5.24215 -33.44515 36976 ft 468 kts 66°
2026-05-06 13:06 -5.21863 -33.38368 36968 ft 477 kts 66°
2026-05-06 13:07 -5.19459 -33.32083 36970 ft 485 kts 66°
2026-05-06 13:07 -5.17032 -33.25739 36968 ft 491 kts 66°
2026-05-06 13:08 -5.14564 -33.19292 36969 ft 495 kts 67°
2026-05-06 13:08 -5.12092 -33.12831 36968 ft 497 kts 66°
2026-05-06 13:09 -5.09620 -33.06375 36970 ft 497 kts 66°
2026-05-06 13:09 -5.07139 -32.99897 36968 ft 496 kts 66°
2026-05-06 13:10 -5.04675 -32.93466 36969 ft 495 kts 66°
2026-05-06 13:10 -5.02203 -32.87018 36969 ft 494 kts 67°
2026-05-06 13:11 -4.99737 -32.80587 36969 ft 494 kts 67°
2026-05-06 13:11 -4.97267 -32.74148 36969 ft 493 kts 66°
2026-05-06 13:12 -4.94820 -32.67769 36966 ft 493 kts 66°
2026-05-06 13:12 -4.92344 -32.61320 36968 ft 493 kts 67°
2026-05-06 13:13 -4.89932 -32.55038 36969 ft 493 kts 67°
2026-05-06 13:13 -4.87511 -32.48734 36970 ft 492 kts 67°
2026-05-06 13:14 -4.85063 -32.42365 36969 ft 490 kts 66°
2026-05-06 13:14 -4.82618 -32.36001 36969 ft 489 kts 67°
2026-05-06 13:15 -4.80169 -32.29633 36969 ft 488 kts 66°
2026-05-06 13:15 -4.77737 -32.23308 36966 ft 487 kts 67°
2026-05-06 13:16 -4.75295 -32.16962 36963 ft 487 kts 67°
2026-05-06 13:16 -4.72851 -32.10613 36956 ft 487 kts 67°
2026-05-06 13:17 -4.70425 -32.04309 36946 ft 486 kts 67°
2026-05-06 13:17 -4.67992 -31.97991 36949 ft 485 kts 67°
2026-05-06 13:18 -4.65556 -31.91669 36950 ft 484 kts 67°
2026-05-06 13:18 -4.63134 -31.85383 36949 ft 485 kts 67°
2026-05-06 13:19 -4.60704 -31.79080 36950 ft 485 kts 67°
2026-05-06 13:19 -4.58289 -31.72817 36950 ft 485 kts 67°
2026-05-06 13:20 -4.55893 -31.66605 36950 ft 484 kts 67°
2026-05-06 13:20 -4.53456 -31.60288 36946 ft 483 kts 67°
2026-05-06 13:21 -4.51033 -31.54009 36949 ft 483 kts 67°
2026-05-06 13:21 -4.48609 -31.47733 36951 ft 483 kts 67°
2026-05-06 13:22 -4.46194 -31.41477 36951 ft 483 kts 67°
2026-05-06 13:22 -4.43775 -31.35216 36951 ft 483 kts 67°
2026-05-06 13:23 -4.41340 -31.28915 36950 ft 483 kts 67°
2026-05-06 13:23 -4.38918 -31.22646 36950 ft 483 kts 67°
2026-05-06 13:24 -4.36496 -31.16383 36950 ft 483 kts 67°
2026-05-06 13:24 -4.34054 -31.10067 36949 ft 483 kts 67°
2026-05-06 13:25 -4.31617 -31.03768 36948 ft 483 kts 67°
2026-05-06 13:25 -4.29188 -30.97490 36949 ft 484 kts 67°
2026-05-06 13:26 -4.26762 -30.91223 36948 ft 484 kts 67°
2026-05-06 13:26 -4.24322 -30.84917 36948 ft 484 kts 67°
2026-05-06 13:27 -4.21892 -30.78643 36949 ft 484 kts 67°
2026-05-06 13:27 -4.19465 -30.72378 36948 ft 484 kts 67°
2026-05-06 13:28 -4.17030 -30.66093 36952 ft 484 kts 67°
2026-05-06 13:28 -4.14588 -30.59793 36951 ft 484 kts 67°
2026-05-06 13:28 -4.13381 -30.56677 37123 ft 482 kts 67°
2026-05-06 13:29 -4.12180 -30.53577 37765 ft 471 kts 67°
2026-05-06 13:29 -4.11013 -30.50565 38508 ft 459 kts 67°
2026-05-06 13:29 -4.09858 -30.47585 38946 ft 455 kts 67°
2026-05-06 13:30 -4.07547 -30.41631 38950 ft 461 kts 67°
2026-05-06 13:30 -4.05210 -30.35608 38954 ft 466 kts 67°
2026-05-06 13:31 -4.02882 -30.29609 38955 ft 471 kts 67°
2026-05-06 13:31 -4.00492 -30.23452 38956 ft 475 kts 67°
2026-05-06 13:32 -3.98122 -30.17349 38953 ft 478 kts 68°
2026-05-06 13:32 -3.95712 -30.11144 38938 ft 482 kts 68°
2026-05-06 13:33 -3.93294 -30.04917 38931 ft 484 kts 68°
2026-05-06 13:33 -3.90850 -29.98629 38925 ft 483 kts 68°
2026-05-06 13:34 -3.88492 -29.92560 38930 ft 482 kts 67°
2026-05-06 13:34 -3.86081 -29.86357 38934 ft 482 kts 68°
2026-05-06 13:35 -3.83666 -29.80146 38940 ft 482 kts 68°
2026-05-06 13:35 -3.81234 -29.73893 38942 ft 483 kts 68°
2026-05-06 13:36 -3.78784 -29.67597 38940 ft 484 kts 68°
2026-05-06 13:36 -3.76354 -29.61352 38934 ft 484 kts 68°
2026-05-06 13:37 -3.73919 -29.55095 38937 ft 483 kts 67°
2026-05-06 13:37 -3.71478 -29.48824 38934 ft 483 kts 67°
2026-05-06 13:38 -3.69056 -29.42604 38940 ft 483 kts 67°
2026-05-06 13:38 -3.66658 -29.36450 38938 ft 484 kts 67°
2026-05-06 13:39 -3.64315 -29.30436 38935 ft 484 kts 67°
2026-05-06 13:39 -3.62298 -29.23883 38935 ft 486 kts 78°
2026-05-06 13:40 -3.61785 -29.17114 38932 ft 488 kts 88°
2026-05-06 13:40 -3.61671 -29.10480 38943 ft 487 kts 88°
2026-05-06 13:41 -3.61550 -29.03723 38946 ft 487 kts 88°
2026-05-06 13:41 -3.61426 -28.96895 38947 ft 488 kts 88°
2026-05-06 13:42 -3.61303 -28.90155 39212 ft 484 kts 88°
2026-05-06 13:42 -3.61242 -28.86828 39869 ft 474 kts 88°
2026-05-06 13:42 -3.61182 -28.83539 40531 ft 464 kts 88°
2026-05-06 13:42 -3.61123 -28.80355 40965 ft 459 kts 89°
2026-05-06 13:43 -3.61063 -28.77138 40950 ft 461 kts 89°
2026-05-06 13:43 -3.60943 -28.70701 40949 ft 463 kts 89°
2026-05-06 13:44 -3.60746 -28.64232 40947 ft 465 kts 84°
2026-05-06 13:44 -3.59377 -28.57961 40945 ft 465 kts 71°
2026-05-06 13:45 -3.57395 -28.51765 40946 ft 466 kts 71°
2026-05-06 13:45 -3.54432 -28.42485 40945 ft 468 kts 71°
2026-05-06 13:46 -3.52454 -28.36292 40949 ft 469 kts 71°
2026-05-06 13:46 -3.50460 -28.30053 40946 ft 470 kts 71°
2026-05-06 13:47 -3.48461 -28.23802 40948 ft 471 kts 71°
2026-05-06 13:47 -3.46461 -28.17546 40948 ft 471 kts 71°
2026-05-06 13:48 -3.44462 -28.11297 40947 ft 472 kts 71°
2026-05-06 13:48 -3.42459 -28.05039 40948 ft 472 kts 71°
2026-05-06 13:49 -3.40459 -27.98790 40947 ft 472 kts 71°
2026-05-06 13:49 -3.38455 -27.92530 40945 ft 472 kts 71°
2026-05-06 13:50 -3.36451 -27.86272 40945 ft 473 kts 71°
2026-05-06 13:50 -3.34445 -27.80006 40945 ft 473 kts 71°
2026-05-06 13:51 -3.32436 -27.73737 40939 ft 473 kts 71°
2026-05-06 13:51 -3.30435 -27.67492 40938 ft 473 kts 71°
2026-05-06 13:52 -3.28422 -27.61209 40934 ft 474 kts 71°
2026-05-06 13:52 -3.26414 -27.54947 40937 ft 474 kts 71°
2026-05-06 13:53 -3.24396 -27.48654 40932 ft 475 kts 71°
2026-05-06 13:53 -3.22379 -27.42363 40928 ft 476 kts 71°
2026-05-06 13:54 -3.20357 -27.36061 40926 ft 477 kts 71°
2026-05-06 13:54 -3.18321 -27.29715 40929 ft 477 kts 71°
2026-05-06 13:55 -3.16289 -27.23382 40926 ft 478 kts 71°
2026-05-06 13:55 -3.14264 -27.17074 40924 ft 479 kts 71°
2026-05-06 13:56 -3.12217 -27.10699 40926 ft 481 kts 71°
2026-05-06 13:56 -3.10166 -27.04310 40926 ft 482 kts 71°
2026-05-06 13:57 -3.08114 -26.97922 40930 ft 482 kts 71°
2026-05-06 13:57 -3.06078 -26.91583 40930 ft 482 kts 71°
2026-05-06 13:58 -3.04015 -26.85165 40927 ft 482 kts 71°
2026-05-06 13:58 -3.01972 -26.78806 40930 ft 481 kts 71°
2026-05-06 13:59 -2.99928 -26.72448 40929 ft 481 kts 71°
2026-05-06 13:59 -2.97882 -26.66086 40930 ft 481 kts 71°
2026-05-06 14:00 -2.95832 -26.59710 40927 ft 481 kts 71°
2026-05-06 14:00 -2.93778 -26.53325 40927 ft 481 kts 71°
2026-05-06 14:01 -2.91731 -26.46961 40924 ft 481 kts 71°
2026-05-06 14:01 -2.89683 -26.40597 40928 ft 482 kts 71°
2026-05-06 14:02 -2.87628 -26.34211 40925 ft 482 kts 71°
2026-05-06 14:02 -2.85573 -26.27826 40927 ft 481 kts 71°
2026-05-06 14:03 -2.83523 -26.21460 40928 ft 482 kts 72°
2026-05-06 14:03 -2.81477 -26.15107 40927 ft 481 kts 72°
2026-05-06 14:04 -2.79426 -26.08738 40927 ft 481 kts 72°
2026-05-06 14:04 -2.77369 -26.02352 40926 ft 480 kts 72°
2026-05-06 14:05 -2.75322 -25.96002 40929 ft 480 kts 72°
2026-05-06 14:05 -2.73283 -25.89675 40926 ft 480 kts 72°
2026-05-06 14:06 -2.71237 -25.83327 40928 ft 481 kts 72°
2026-05-06 14:06 -2.69174 -25.76927 40928 ft 481 kts 72°
2026-05-06 14:07 -2.67122 -25.70564 40931 ft 481 kts 72°
2026-05-06 14:07 -2.65075 -25.64215 40939 ft 480 kts 72°
2026-05-06 14:08 -2.63032 -25.57884 40937 ft 479 kts 72°
2026-05-06 14:08 -2.60989 -25.51552 40943 ft 479 kts 72°
2026-05-06 14:09 -2.58946 -25.45221 40939 ft 479 kts 72°
2026-05-06 14:09 -2.56897 -25.38871 40933 ft 479 kts 72°
2026-05-06 14:10 -2.54847 -25.32522 40933 ft 479 kts 72°
2026-05-06 14:10 -2.52807 -25.26202 40933 ft 479 kts 72°
2026-05-06 14:11 -2.50754 -25.19846 40932 ft 478 kts 72°
2026-05-06 14:11 -2.48709 -25.13514 40928 ft 479 kts 72°
2026-05-06 14:12 -2.46674 -25.07214 40926 ft 478 kts 72°
2026-05-06 14:12 -2.44631 -25.00893 40929 ft 478 kts 72°
2026-05-06 14:13 -2.42583 -24.94556 40926 ft 477 kts 72°
2026-05-06 14:13 -2.40545 -24.88250 40929 ft 477 kts 72°
2026-05-06 14:14 -2.38515 -24.81972 40926 ft 477 kts 72°
2026-05-06 14:14 -2.36471 -24.75651 40927 ft 477 kts 72°
2026-05-06 14:15 -2.34424 -24.69322 40926 ft 477 kts 72°
2026-05-06 14:15 -2.32383 -24.63009 40926 ft 477 kts 72°
2026-05-06 14:16 -2.30341 -24.56696 40927 ft 477 kts 72°
2026-05-06 14:16 -2.28310 -24.50422 40928 ft 478 kts 72°
2026-05-06 14:17 -2.26256 -24.44074 40927 ft 478 kts 72°
2026-05-06 14:17 -2.24214 -24.37763 40926 ft 478 kts 72°
2026-05-06 14:18 -2.22175 -24.31464 40927 ft 477 kts 72°
2026-05-06 14:18 -2.20132 -24.25154 40927 ft 477 kts 72°
2026-05-06 14:19 -2.18085 -24.18833 40927 ft 477 kts 72°
2026-05-06 14:19 -2.16039 -24.12516 40926 ft 477 kts 72°
2026-05-06 14:20 -2.13994 -24.06203 40928 ft 477 kts 72°
2026-05-06 14:20 -2.11957 -23.99917 40926 ft 476 kts 71°
2026-05-06 14:21 -2.09923 -23.93638 40926 ft 476 kts 71°
2026-05-06 14:21 -2.07869 -23.87301 40928 ft 477 kts 72°
2026-05-06 14:22 -2.05832 -23.81018 40928 ft 477 kts 71°
2026-05-06 14:22 -2.03787 -23.74709 40926 ft 477 kts 71°
2026-05-06 14:23 -2.01736 -23.68383 40927 ft 477 kts 71°
2026-05-06 14:23 -1.99690 -23.62073 40927 ft 477 kts 71°
2026-05-06 14:24 -1.97645 -23.55768 40927 ft 476 kts 71°
2026-05-06 14:24 -1.95610 -23.49497 40926 ft 476 kts 71°
2026-05-06 14:25 -1.93566 -23.43194 40926 ft 476 kts 71°
2026-05-06 14:25 -1.91532 -23.36927 40926 ft 477 kts 71°
2026-05-06 14:26 -1.89485 -23.30618 40922 ft 477 kts 71°
2026-05-06 14:26 -1.87444 -23.24329 40917 ft 476 kts 71°
2026-05-06 14:27 -1.85398 -23.18024 40911 ft 475 kts 71°
2026-05-06 14:27 -1.83366 -23.11764 40911 ft 474 kts 71°
2026-05-06 14:28 -1.81340 -23.05524 40909 ft 473 kts 71°
2026-05-06 14:28 -1.79304 -22.99254 40906 ft 474 kts 71°
2026-05-06 14:29 -1.77267 -22.92982 40907 ft 475 kts 71°
2026-05-06 14:29 -1.75231 -22.86713 40908 ft 475 kts 71°
2026-05-06 14:30 -1.73192 -22.80434 40906 ft 473 kts 71°
2026-05-06 14:30 -1.71163 -22.74189 40906 ft 472 kts 71°
2026-05-06 14:31 -1.69138 -22.67956 40906 ft 472 kts 71°
2026-05-06 14:31 -1.67121 -22.61750 40906 ft 472 kts 71°
2026-05-06 14:32 -1.65091 -22.55506 40906 ft 471 kts 71°
2026-05-06 14:32 -1.63076 -22.49304 40907 ft 471 kts 71°
2026-05-06 14:33 -1.60944 -22.43076 40905 ft 470 kts 65°
2026-05-06 14:33 -1.58188 -22.37171 40906 ft 469 kts 64°
2026-05-06 14:34 -1.55439 -22.31316 40907 ft 468 kts 64°
2026-05-06 14:34 -1.52671 -22.25416 40908 ft 468 kts 64°
2026-05-06 14:35 -1.49904 -22.19518 40915 ft 468 kts 64°
2026-05-06 14:35 -1.47153 -22.13651 40926 ft 468 kts 64°
2026-05-06 14:36 -1.44389 -22.07756 40927 ft 468 kts 64°
2026-05-06 14:36 -1.41619 -22.01847 40927 ft 468 kts 64°
2026-05-06 14:37 -1.38865 -21.95970 40928 ft 468 kts 64°
2026-05-06 14:37 -1.36104 -21.90079 40927 ft 468 kts 64°
2026-05-06 14:38 -1.33353 -21.84210 40927 ft 467 kts 64°
2026-05-06 14:38 -1.30586 -21.78305 40926 ft 467 kts 64°
2026-05-06 14:39 -1.27847 -21.72462 40927 ft 466 kts 64°
2026-05-06 14:39 -1.25094 -21.66587 40927 ft 467 kts 64°
2026-05-06 14:40 -1.22336 -21.60705 40927 ft 467 kts 64°
2026-05-06 14:40 -1.19575 -21.54814 40926 ft 468 kts 64°
2026-05-06 14:41 -1.16824 -21.48947 40927 ft 467 kts 64°
2026-05-06 14:41 -1.14053 -21.43035 40928 ft 466 kts 64°
2026-05-06 14:42 -1.11311 -21.37186 40927 ft 466 kts 64°
2026-05-06 14:42 -1.08566 -21.31332 40927 ft 465 kts 64°
2026-05-06 14:43 -1.05812 -21.25458 40919 ft 466 kts 64°
2026-05-06 14:43 -1.03070 -21.19612 40911 ft 466 kts 64°
2026-05-06 14:44 -1.00330 -21.13770 40904 ft 466 kts 64°
2026-05-06 14:45 -0.96195 -21.04953 40908 ft 466 kts 64°
2026-05-06 14:45 -0.93457 -20.99116 40908 ft 465 kts 64°
2026-05-06 14:46 -0.90705 -20.93248 40908 ft 465 kts 64°
2026-05-06 14:46 -0.87965 -20.87407 40906 ft 466 kts 64°
2026-05-06 14:47 -0.85206 -20.81526 40905 ft 466 kts 64°
2026-05-06 14:47 -0.82449 -20.75649 40911 ft 466 kts 64°
2026-05-06 14:48 -0.79716 -20.69824 40907 ft 465 kts 64°
2026-05-06 14:48 -0.76971 -20.63974 40908 ft 464 kts 64°
2026-05-06 14:49 -0.74235 -20.58142 40905 ft 464 kts 64°
2026-05-06 14:49 -0.71488 -20.52289 40909 ft 463 kts 64°
2026-05-06 14:50 -0.68753 -20.46461 40907 ft 463 kts 64°
2026-05-06 14:50 -0.66009 -20.40614 40903 ft 463 kts 64°
2026-05-06 14:51 -0.63287 -20.34815 40904 ft 463 kts 64°
2026-05-06 14:51 -0.60554 -20.28990 40904 ft 464 kts 64°
2026-05-06 14:52 -0.57806 -20.23136 40907 ft 464 kts 64°
2026-05-06 14:52 -0.55073 -20.17315 40905 ft 463 kts 64°
2026-05-06 14:53 -0.52334 -20.11478 40908 ft 463 kts 64°
2026-05-06 14:53 -0.49608 -20.05673 40907 ft 462 kts 64°
2026-05-06 14:54 -0.46866 -19.99830 40908 ft 463 kts 64°
2026-05-06 14:54 -0.44146 -19.94036 40903 ft 463 kts 64°
2026-05-06 14:55 -0.41401 -19.88190 40906 ft 464 kts 64°
2026-05-06 14:55 -0.38653 -19.82336 40905 ft 464 kts 64°
2026-05-06 14:56 -0.35927 -19.76531 40904 ft 463 kts 64°
2026-05-06 14:56 -0.33204 -19.70730 40905 ft 462 kts 64°
2026-05-06 14:57 -0.30467 -19.64901 40904 ft 463 kts 64°
2026-05-06 14:57 -0.27729 -19.59068 40905 ft 464 kts 64°
2026-05-06 14:58 -0.24991 -19.53236 40905 ft 464 kts 64°
2026-05-06 14:58 -0.22237 -19.47372 40903 ft 464 kts 64°
2026-05-06 14:59 -0.19491 -19.41522 40903 ft 464 kts 64°
2026-05-06 14:59 -0.16753 -19.35692 40901 ft 463 kts 64°
2026-05-06 15:00 -0.14017 -19.29865 40904 ft 464 kts 64°
2026-05-06 15:00 -0.11275 -19.24025 40893 ft 466 kts 64°
2026-05-06 15:01 -0.08520 -19.18156 40890 ft 466 kts 64°
2026-05-06 15:01 -0.05783 -19.12328 40888 ft 465 kts 64°
2026-05-06 15:02 -0.03042 -19.06490 40889 ft 464 kts 64°
2026-05-06 15:02 -0.00297 -19.00643 40901 ft 464 kts 64°
2026-05-06 15:03 0.02574 -18.94842 40908 ft 466 kts 63°
2026-05-06 15:03 0.05475 -18.89056 40906 ft 468 kts 63°
2026-05-06 15:04 0.08381 -18.83258 40906 ft 468 kts 63°
2026-05-06 15:04 0.11295 -18.77443 40908 ft 468 kts 63°
2026-05-06 15:05 0.14211 -18.71624 40909 ft 468 kts 63°
2026-05-06 15:05 0.17133 -18.65791 40911 ft 468 kts 63°
2026-05-06 15:06 0.20046 -18.59974 40910 ft 467 kts 63°
2026-05-06 15:06 0.22948 -18.54179 40909 ft 467 kts 63°
2026-05-06 15:07 0.25846 -18.48393 40910 ft 467 kts 63°
2026-05-06 15:07 0.28758 -18.42579 40908 ft 467 kts 63°
2026-05-06 15:08 0.31670 -18.36763 40908 ft 467 kts 63°
2026-05-06 15:08 0.34577 -18.30957 40907 ft 467 kts 63°
2026-05-06 15:09 0.37480 -18.25158 40908 ft 467 kts 63°
2026-05-06 15:09 0.40381 -18.19364 40906 ft 466 kts 63°
2026-05-06 15:10 0.43281 -18.13571 40907 ft 465 kts 63°
2026-05-06 15:10 0.46162 -18.07818 40906 ft 464 kts 63°
2026-05-06 15:11 0.49066 -18.02017 40905 ft 465 kts 63°
2026-05-06 15:11 0.51942 -17.96271 40906 ft 465 kts 63°
2026-05-06 15:12 0.54848 -17.90466 40906 ft 465 kts 63°
2026-05-06 15:12 0.57733 -17.84701 40906 ft 465 kts 63°
2026-05-06 15:13 0.60634 -17.78905 40906 ft 465 kts 63°
2026-05-06 15:13 0.63526 -17.73128 40908 ft 465 kts 63°
2026-05-06 15:14 0.66415 -17.67356 40906 ft 465 kts 63°
2026-05-06 15:14 0.69301 -17.61588 40906 ft 465 kts 63°
2026-05-06 15:15 0.72197 -17.55802 40906 ft 466 kts 63°
2026-05-06 15:15 0.75099 -17.50004 40906 ft 466 kts 63°
2026-05-06 15:16 0.77995 -17.44215 40908 ft 466 kts 63°
2026-05-06 15:16 0.80884 -17.38443 40905 ft 466 kts 63°
2026-05-06 15:17 0.83790 -17.32635 40905 ft 466 kts 63°
2026-05-06 15:17 0.86681 -17.26857 40905 ft 466 kts 63°
2026-05-06 15:18 0.89569 -17.21083 40906 ft 466 kts 63°
2026-05-06 15:18 0.92467 -17.15290 40906 ft 466 kts 63°
2026-05-06 15:19 0.95369 -17.09489 40906 ft 467 kts 63°
2026-05-06 15:19 0.98273 -17.03682 40905 ft 467 kts 63°
2026-05-06 15:20 1.01197 -16.97837 40903 ft 468 kts 63°
2026-05-06 15:20 1.04114 -16.92003 40893 ft 468 kts 63°
2026-05-06 15:21 1.07015 -16.86202 40885 ft 467 kts 63°
2026-05-06 15:21 1.09912 -16.80408 40886 ft 466 kts 63°
2026-05-06 15:22 1.12789 -16.74653 40886 ft 466 kts 63°
2026-05-06 15:22 1.15699 -16.68832 40885 ft 466 kts 63°
2026-05-06 15:23 1.18605 -16.63020 40889 ft 466 kts 63°
2026-05-06 15:23 1.21485 -16.57259 40893 ft 466 kts 63°
2026-05-06 15:24 1.24384 -16.51459 40898 ft 466 kts 63°
2026-05-06 15:24 1.27289 -16.45646 40901 ft 465 kts 63°
2026-05-06 15:25 1.30175 -16.39870 40903 ft 465 kts 63°
2026-05-06 15:25 1.33021 -16.34176 40904 ft 465 kts 63°
2026-05-06 15:26 1.35896 -16.28423 40908 ft 464 kts 63°
2026-05-06 15:26 1.38792 -16.22626 40907 ft 464 kts 63°
2026-05-06 15:27 1.41669 -16.16867 40907 ft 463 kts 63°
2026-05-06 15:27 1.44547 -16.11107 40907 ft 463 kts 63°
2026-05-06 15:28 1.47421 -16.05354 40906 ft 464 kts 63°
2026-05-06 15:28 1.50304 -15.99583 40906 ft 464 kts 63°
2026-05-06 15:29 1.53184 -15.93816 40906 ft 463 kts 63°
2026-05-06 15:29 1.56071 -15.88036 40905 ft 462 kts 63°
2026-05-06 15:30 1.58938 -15.82294 40908 ft 462 kts 63°
2026-05-06 15:30 1.61822 -15.76519 40904 ft 462 kts 63°
2026-05-06 15:31 1.64697 -15.70760 40907 ft 463 kts 63°
2026-05-06 15:31 1.67561 -15.65024 40905 ft 463 kts 63°
2026-05-06 15:32 1.71857 -15.56417 40910 ft 463 kts 63°
2026-05-06 15:32 1.74729 -15.50664 40908 ft 462 kts 63°
2026-05-06 15:33 1.77593 -15.44924 40907 ft 462 kts 63°
2026-05-06 15:33 1.80459 -15.39182 40906 ft 462 kts 63°
2026-05-06 15:34 1.83333 -15.33420 40904 ft 463 kts 63°
2026-05-06 15:34 1.86193 -15.27688 40907 ft 463 kts 63°
2026-05-06 15:35 1.89065 -15.21932 40904 ft 463 kts 63°
2026-05-06 15:35 1.91953 -15.16142 40907 ft 462 kts 63°
2026-05-06 15:36 1.94811 -15.10411 40905 ft 462 kts 63°
2026-05-06 15:36 1.97663 -15.04692 40905 ft 461 kts 63°
2026-05-06 15:37 2.00896 -14.99148 40908 ft 461 kts 52°
2026-05-06 15:37 2.05154 -14.94336 40905 ft 461 kts 47°
2026-05-06 15:38 2.09497 -14.89566 40904 ft 462 kts 47°
2026-05-06 15:38 2.13811 -14.84827 40903 ft 462 kts 47°
2026-05-06 15:39 2.18143 -14.80067 40894 ft 461 kts 47°
2026-05-06 15:39 2.22453 -14.75329 40886 ft 461 kts 47°
2026-05-06 15:40 2.26758 -14.70598 40886 ft 460 kts 47°
2026-05-06 15:40 2.31075 -14.65852 40885 ft 461 kts 47°
2026-05-06 15:41 2.35411 -14.61085 40888 ft 461 kts 47°
2026-05-06 15:41 2.39738 -14.56327 40885 ft 461 kts 47°
2026-05-06 15:42 2.44029 -14.51608 40886 ft 461 kts 47°
2026-05-06 15:42 2.48364 -14.46841 40885 ft 460 kts 47°
2026-05-06 15:43 2.52668 -14.42106 40885 ft 460 kts 47°
2026-05-06 15:43 2.56969 -14.37375 40884 ft 461 kts 47°
2026-05-06 15:44 2.61286 -14.32625 40887 ft 461 kts 47°
2026-05-06 15:44 2.65620 -14.27857 40887 ft 461 kts 47°
2026-05-06 15:45 2.69935 -14.23109 40888 ft 461 kts 47°
2026-05-06 15:45 2.74246 -14.18364 40890 ft 461 kts 47°
2026-05-06 15:46 2.78568 -14.13607 40888 ft 460 kts 47°
2026-05-06 15:46 2.82882 -14.08858 40890 ft 461 kts 47°
2026-05-06 15:47 2.87205 -14.04100 40890 ft 461 kts 47°
2026-05-06 15:47 2.91523 -13.99345 40886 ft 461 kts 47°
2026-05-06 15:48 2.95850 -13.94581 40896 ft 461 kts 47°
2026-05-06 15:48 3.00181 -13.89811 40907 ft 461 kts 47°
2026-05-06 15:49 3.04488 -13.85067 40907 ft 461 kts 47°
2026-05-06 15:49 3.08784 -13.80335 40907 ft 461 kts 47°
2026-05-06 15:50 3.13129 -13.75548 40906 ft 461 kts 47°
2026-05-06 15:50 3.17454 -13.70783 40906 ft 461 kts 47°
2026-05-06 15:51 3.21743 -13.66056 40907 ft 462 kts 47°
2026-05-06 15:51 3.26081 -13.61276 40905 ft 461 kts 47°
2026-05-06 15:52 3.30384 -13.56533 40905 ft 462 kts 47°
2026-05-06 15:52 3.34733 -13.51739 40905 ft 462 kts 47°
2026-05-06 15:53 3.39061 -13.46967 40905 ft 462 kts 47°
2026-05-06 15:53 3.43366 -13.42220 40907 ft 462 kts 47°
2026-05-06 15:54 3.47692 -13.37450 40906 ft 462 kts 47°
2026-05-06 15:54 3.52016 -13.32682 40908 ft 462 kts 47°
2026-05-06 15:55 3.56331 -13.27922 40896 ft 462 kts 47°
2026-05-06 15:55 3.60671 -13.23133 40887 ft 462 kts 47°
2026-05-06 15:56 3.65005 -13.18352 40884 ft 462 kts 47°
2026-05-06 15:56 3.69314 -13.13596 40885 ft 462 kts 48°
2026-05-06 15:57 3.73631 -13.08832 40884 ft 462 kts 48°
2026-05-06 15:57 3.77931 -13.04086 40884 ft 462 kts 48°
2026-05-06 15:58 3.82272 -12.99294 40887 ft 462 kts 48°
2026-05-06 15:58 3.86588 -12.94529 40885 ft 462 kts 48°
2026-05-06 15:59 3.90908 -12.89757 40886 ft 462 kts 48°
2026-05-06 15:59 3.95221 -12.84994 40885 ft 461 kts 48°
2026-05-06 16:00 3.99537 -12.80226 40885 ft 461 kts 48°
2026-05-06 16:00 4.03850 -12.75461 40885 ft 461 kts 48°
2026-05-06 16:01 4.08171 -12.70686 40885 ft 461 kts 48°
2026-05-06 16:01 4.12245 -12.66184 40888 ft 461 kts 47°
2026-05-06 16:02 4.16588 -12.61383 40885 ft 462 kts 48°
2026-05-06 16:02 4.20908 -12.56607 40884 ft 462 kts 48°
2026-05-06 16:03 4.25235 -12.51823 40886 ft 462 kts 48°
2026-05-06 16:03 4.29532 -12.47069 40886 ft 462 kts 48°
2026-05-06 16:04 4.33853 -12.42291 40886 ft 462 kts 48°
2026-05-06 16:04 4.38169 -12.37515 40885 ft 463 kts 48°
2026-05-06 16:05 4.42466 -12.32761 40887 ft 463 kts 48°
2026-05-06 16:05 4.46784 -12.27982 40887 ft 463 kts 48°
2026-05-06 16:06 4.51112 -12.23190 40884 ft 463 kts 48°
2026-05-06 16:06 4.55432 -12.18407 40885 ft 462 kts 48°
2026-05-06 16:07 4.59835 -12.13717 40886 ft 463 kts 46°
2026-05-06 16:07 4.64335 -12.09065 40886 ft 464 kts 46°
2026-05-06 16:08 4.68836 -12.04410 40886 ft 465 kts 46°
2026-05-06 16:08 4.73308 -11.99784 40885 ft 464 kts 46°
2026-05-06 16:09 4.77803 -11.95133 40886 ft 464 kts 46°
2026-05-06 16:09 4.82309 -11.90469 40886 ft 464 kts 46°
2026-05-06 16:10 4.86835 -11.85784 40885 ft 464 kts 46°
2026-05-06 16:10 4.91331 -11.81128 40886 ft 465 kts 46°
2026-05-06 16:11 4.95839 -11.76459 40718 ft 463 kts 46°
2026-05-06 16:11 4.98100 -11.74117 40189 ft 468 kts 46°
2026-05-06 16:11 5.00349 -11.71787 39575 ft 474 kts 46°
2026-05-06 16:12 5.02631 -11.69423 38900 ft 471 kts 46°
2026-05-06 16:12 5.04904 -11.67068 37881 ft 472 kts 46°
2026-05-06 16:12 5.07233 -11.64654 36683 ft 476 kts 46°
2026-05-06 16:12 5.09515 -11.62289 35485 ft 478 kts 46°
2026-05-06 16:13 5.11847 -11.59872 34061 ft 478 kts 46°
2026-05-06 16:13 5.14091 -11.57505 32556 ft 479 kts 47°
2026-05-06 16:13 5.16344 -11.55038 31385 ft 475 kts 47°
2026-05-06 16:13 5.18509 -11.52666 30273 ft 471 kts 47°
2026-05-06 16:14 5.20717 -11.50247 29237 ft 469 kts 47°
2026-05-06 16:14 5.22917 -11.47836 28354 ft 464 kts 47°
2026-05-06 16:14 5.25097 -11.45447 27478 ft 460 kts 47°
2026-05-06 16:14 5.27238 -11.43102 26571 ft 458 kts 47°
2026-05-06 16:15 5.29379 -11.40755 25699 ft 454 kts 47°
2026-05-06 16:15 5.31495 -11.38436 25071 ft 445 kts 47°
2026-05-06 16:15 5.33574 -11.36158 24449 ft 436 kts 48°
2026-05-06 16:15 5.35607 -11.33929 23877 ft 434 kts 48°
2026-05-06 16:16 5.37661 -11.31677 23295 ft 433 kts 48°
2026-05-06 16:16 5.39689 -11.29453 22718 ft 431 kts 48°
2026-05-06 16:16 5.41693 -11.27255 22163 ft 441 kts 48°
2026-05-06 16:16 5.43793 -11.24951 21566 ft 452 kts 48°
2026-05-06 16:17 5.45941 -11.22596 20953 ft 454 kts 48°
2026-05-06 16:17 5.48043 -11.20289 20357 ft 448 kts 48°
2026-05-06 16:17 5.50134 -11.17996 19757 ft 443 kts 49°
2026-05-06 16:17 5.52213 -11.15716 19175 ft 438 kts 49°
2026-05-06 16:18 5.54246 -11.13485 18601 ft 433 kts 49°
2026-05-06 16:18 5.56296 -11.11236 18022 ft 428 kts 49°
2026-05-06 16:18 5.58265 -11.09074 17465 ft 423 kts 49°
2026-05-06 16:18 5.60260 -11.06885 16902 ft 419 kts 49°
2026-05-06 16:19 5.62213 -11.04742 16347 ft 412 kts 49°
2026-05-06 16:19 5.64114 -11.02622 15807 ft 401 kts 52°
2026-05-06 16:19 5.65556 -11.00272 15282 ft 388 kts 66°
2026-05-06 16:19 5.66528 -10.97888 14777 ft 376 kts 69°
2026-05-06 16:20 5.67501 -10.95464 14282 ft 364 kts 69°
2026-05-06 16:20 5.68450 -10.93105 13802 ft 353 kts 69°
2026-05-06 16:20 5.69356 -10.90855 13344 ft 342 kts 69°
2026-05-06 16:20 5.70232 -10.88677 12894 ft 332 kts 69°
2026-05-06 16:21 5.71080 -10.86568 12464 ft 322 kts 69°
2026-05-06 16:21 5.71908 -10.84510 12044 ft 313 kts 69°
2026-05-06 16:21 5.72715 -10.82502 11631 ft 305 kts 69°
2026-05-06 16:21 5.73497 -10.80554 11234 ft 298 kts 69°
2026-05-06 16:22 5.74265 -10.78636 10842 ft 291 kts 69°
2026-05-06 16:22 5.75014 -10.76765 10459 ft 286 kts 68°
2026-05-06 16:22 5.75743 -10.74944 10087 ft 280 kts 68°
2026-05-06 16:22 5.76467 -10.73134 9719 ft 275 kts 68°
2026-05-06 16:23 5.77171 -10.71375 9357 ft 270 kts 68°
2026-05-06 16:23 5.77868 -10.69634 9003 ft 266 kts 68°
2026-05-06 16:23 5.78564 -10.67891 8632 ft 267 kts 68°
2026-05-06 16:23 5.79175 -10.66365 8325 ft 268 kts 68°
2026-05-06 16:24 5.79784 -10.64843 8009 ft 268 kts 68°
2026-05-06 16:24 5.80637 -10.62793 7585 ft 268 kts 62°
2026-05-06 16:24 5.81806 -10.61358 7237 ft 269 kts 39°
2026-05-06 16:24 5.83406 -10.60336 6867 ft 271 kts 32°
2026-05-06 16:25 5.85045 -10.59358 6510 ft 271 kts 32°
2026-05-06 16:25 5.86669 -10.58381 6357 ft 274 kts 32°
2026-05-06 16:25 5.88312 -10.57391 5900 ft 276 kts 32°
2026-05-06 16:25 5.89951 -10.56406 5555 ft 271 kts 32°
2026-05-06 16:26 5.91576 -10.55427 5187 ft 270 kts 32°
2026-05-06 16:26 5.93201 -10.54448 4822 ft 269 kts 31°
2026-05-06 16:26 5.94798 -10.53485 4474 ft 268 kts 31°
2026-05-06 16:26 5.96417 -10.52547 4147 ft 268 kts 25°
2026-05-06 16:27 5.98249 -10.52098 3798 ft 268 kts
2026-05-06 16:27 6.00115 -10.51845 3472 ft 268 kts
2026-05-06 16:27 6.01964 -10.51584 3151 ft 269 kts
2026-05-06 16:27 6.03838 -10.51317 2820 ft 268 kts
2026-05-06 16:28 6.05681 -10.51053 2698 ft 262 kts
2026-05-06 16:28 6.07530 -10.50787 2759 ft 268 kts
2026-05-06 16:28 6.09406 -10.50517 2774 ft 268 kts
2026-05-06 16:28 6.11249 -10.50250 2783 ft 269 kts
2026-05-06 16:29 6.13120 -10.49979 2788 ft 269 kts
2026-05-06 16:29 6.14982 -10.49708 2788 ft 268 kts
2026-05-06 16:29 6.16846 -10.49436 2794 ft 268 kts
2026-05-06 16:29 6.18698 -10.49166 2805 ft 268 kts
2026-05-06 16:30 6.20571 -10.48892 2813 ft 269 kts
2026-05-06 16:30 6.21795 -10.48714 2821 ft 269 kts
2026-05-06 16:30 6.24258 -10.48258 2833 ft 270 kts 19°
2026-05-06 16:30 6.25909 -10.47349 2828 ft 270 kts 33°
2026-05-06 16:31 6.27509 -10.46310 2836 ft 270 kts 32°
2026-05-06 16:31 6.29104 -10.45283 2847 ft 271 kts 32°
2026-05-06 16:31 6.30688 -10.44264 2858 ft 271 kts 32°
2026-05-06 16:31 6.32283 -10.43237 2868 ft 271 kts 32°
2026-05-06 16:32 6.33885 -10.42206 2883 ft 271 kts 32°
2026-05-06 16:32 6.35467 -10.41187 2897 ft 271 kts 32°
2026-05-06 16:32 6.37073 -10.40152 2911 ft 271 kts 33°
2026-05-06 16:32 6.38668 -10.39125 2922 ft 271 kts 33°
2026-05-06 16:33 6.40247 -10.38108 2934 ft 271 kts 33°
2026-05-06 16:33 6.41836 -10.37084 2950 ft 270 kts 32°
2026-05-06 16:33 6.43397 -10.36036 2956 ft 262 kts 39°
2026-05-06 16:34 6.45112 -10.33013 2856 ft 249 kts 83°
2026-05-06 16:34 6.45044 -10.31299 2786 ft 246 kts 104°
2026-05-06 16:34 6.44395 -10.29711 2713 ft 245 kts 121°
2026-05-06 16:34 6.43500 -10.28258 2650 ft 244 kts 127°
2026-05-06 16:35 6.42300 -10.27049 2578 ft 243 kts 148°
2026-05-06 16:35 6.40707 -10.26504 2495 ft 240 kts 177°
2026-05-06 16:35 6.39076 -10.26800 2412 ft 237 kts 205°
2026-05-06 16:35 6.37647 -10.27617 2346 ft 237 kts 212°
2026-05-06 16:36 6.36215 -10.28500 2281 ft 238 kts 212°
2026-05-06 16:36 6.34815 -10.29346 2376 ft 229 kts 211°
2026-05-06 16:36 6.33481 -10.30150 2073 ft 215 kts 211°
2026-05-06 16:36 6.32271 -10.30879 1801 ft 187 kts 211°
2026-05-06 16:37 6.31262 -10.31487 1622 ft 150 kts 211°
2026-05-06 16:37 6.30413 -10.31999 1432 ft 135 kts 211°
2026-05-06 16:37 6.29621 -10.32476 1229 ft 128 kts 211°
2026-05-06 16:37 6.28862 -10.32933 1075 ft 127 kts 211°
2026-05-06 16:38 6.28106 -10.33389 907 ft 125 kts 211°
2026-05-06 16:38 6.27369 -10.33841 712 ft 125 kts 211°
2026-05-06 16:38 6.26600 -10.34290 551 ft 127 kts 210°
2026-05-06 16:38 6.25854 -10.34732 389 ft 122 kts 210°
2026-05-06 16:39 6.25135 -10.35174 233 ft 119 kts 210°
2026-05-06 16:39 6.24407 -10.35610 66 ft 118 kts 210°
2026-05-06 16:39 6.23750 -10.36000 49 ft 99 kts 211°
2026-05-06 16:39 6.23262 -10.36302 48 ft 57 kts 211°
2026-05-06 16:40 6.22978 -10.36474 51 ft 42 kts 211°
2026-05-06 16:40 6.22836 -10.36547 51 ft 8 kts 244°
2026-05-06 16:40 6.22894 -10.36534 51 ft 14 kts 35°
2026-05-06 16:40 6.23002 -10.36460 50 ft 23 kts 31°
2026-05-06 16:41 6.23171 -10.36355 48 ft 32 kts 33°
2026-05-06 16:41 6.23384 -10.36231 48 ft 38 kts 31°
2026-05-06 16:41 6.23623 -10.36085 49 ft 40 kts 30°
2026-05-06 16:41 6.23867 -10.35938 49 ft 40 kts 31°
2026-05-06 16:42 6.24014 -10.35847 49 ft 15 kts 50°
2026-05-06 16:42 6.23994 -10.35755 49 ft 16 kts 123°
2026-05-06 16:42 6.23930 -10.35652 47 ft 15 kts 120°
2026-05-06 16:42 6.23921 -10.35570 47 ft 13 kts 38°
2026-05-06 16:43 6.24017 -10.35509 46 ft 18 kts 33°
2026-05-06 16:43 6.24136 -10.35438 48 ft 13 kts 29°
2026-05-06 16:43 6.24210 -10.35427 49 ft 9 kts 297°
2026-05-06 16:43 6.24230 -10.35444 49 ft 4 kts 91°
2026-05-06 16:44 6.24225 -10.35414 49 ft 0 kts 102°